• In Netherlands
  • List of Countries
  • For 7 days
  • Water Temperature
  • Satellite Maps
  • Weather Map
  • Weather Widgets
  • user-avatar
    Login

    Hourly Weather Ghent

    Today, 16 January, Monday

    Time Temperature Precipitation Wind Pressure Humidity
    00:00 0°C° 0 mm 1 mps 767 mmHg 94%
    01:00 0°C° 0 mm 1 mps 767 mmHg 94%
    02:00 0°C° 0 mm 1 mps 767 mmHg 94%
    03:00 0°C° 0 mm 1 mps 767 mmHg 94%
    04:00 +1°C° 0.1 mm 1 mps 768 mmHg 94%
    05:00 +1°C° 0.1 mm 1 mps 768 mmHg 93%
    06:00 +2°C° 0 mm 1 mps 768 mmHg 93%
    07:00 +2°C° 0.1 mm 1 mps 768 mmHg 93%
    08:00 +2°C° 0.1 mm 1 mps 769 mmHg 92%
    09:00 +3°C° 0.1 mm 1 mps 769 mmHg 91%
    10:00 +2°C° 0.1 mm 2 mps 769 mmHg 88%
    11:00 +3°C° 0.1 mm 2 mps 769 mmHg 85%
    12:00 +4°C° 0.1 mm 2 mps 769 mmHg 82%
    13:00 +3°C° 0 mm 2 mps 769 mmHg 83%
    14:00 +3°C° 0 mm 2 mps 770 mmHg 84%
    15:00 +3°C° 0 mm 2 mps 770 mmHg 85%
    16:00 +2°C° 0 mm 2 mps 770 mmHg 87%
    17:00 -1°C° 0 mm 2 mps 771 mmHg 90%
    18:00 -2°C° 0 mm 3 mps 771 mmHg 93%
    19:00 -2°C° 0 mm 3 mps 771 mmHg 93%
    20:00 -2°C° 0 mm 2 mps 772 mmHg 94%
    21:00 -3°C° 0 mm 2 mps 773 mmHg 94%
    22:00 -3°C° 0 mm 2 mps 773 mmHg 93%
    23:00 -3°C° 0 mm 2 mps 774 mmHg 93%

    Tomorrow, 17 January, Tuesday

    Time Temperature Precipitation Wind Pressure Humidity
    00:00 -3°C° 0 mm 2 mps 774 mmHg 92%
    01:00 -3°C° 0 mm 2 mps 774 mmHg 91%
    02:00 -4°C° 0 mm 2 mps 775 mmHg 89%
    03:00 -4°C° 0 mm 2 mps 775 mmHg 88%
    04:00 -4°C° 0 mm 2 mps 775 mmHg 87%
    05:00 -4°C° 0 mm 2 mps 775 mmHg 86%
    06:00 -4°C° 0 mm 2 mps 775 mmHg 85%
    07:00 -3°C° 0 mm 2 mps 776 mmHg 83%
    08:00 -3°C° 0 mm 2 mps 776 mmHg 81%
    09:00 -3°C° 0 mm 2 mps 777 mmHg 80%
    10:00 -2°C° 0 mm 2 mps 777 mmHg 75%
    11:00 -1°C° 0 mm 2 mps 777 mmHg 70%
    12:00 +1°C° 0 mm 2 mps 777 mmHg 65%
    13:00 +1°C° 0 mm 2 mps 777 mmHg 65%
    14:00 +1°C° 0 mm 2 mps 777 mmHg 66%
    15:00 +1°C° 0 mm 2 mps 777 mmHg 67%
    16:00 -1°C° 0 mm 2 mps 778 mmHg 71%
    17:00 -2°C° 0 mm 2 mps 778 mmHg 75%
    18:00 -3°C° 0 mm 2 mps 778 mmHg 78%
    19:00 -3°C° 0 mm 2 mps 778 mmHg 78%
    20:00 -3°C° 0 mm 2 mps 779 mmHg 78%
    21:00 -3°C° 0 mm 2 mps 779 mmHg 79%
    22:00 -3°C° 0 mm 2 mps 779 mmHg 79%
    23:00 -4°C° 0 mm 2 mps 779 mmHg 79%

    Day after tomorrow, 18 January, Wednesday

    Time Temperature Precipitation Wind Pressure Humidity
    00:00 -4°C° 0 mm 2 mps 779 mmHg 79%
    01:00 -4°C° 0 mm 2 mps 779 mmHg 79%
    02:00 -4°C° 0 mm 2 mps 779 mmHg 80%
    03:00 -2°C° 0 mm 1 mps 779 mmHg 81%
    04:00 -2°C° 0 mm 1 mps 779 mmHg 81%
    05:00 -2°C° 0 mm 1 mps 779 mmHg 82%
    06:00 -2°C° 0 mm 1 mps 779 mmHg 82%
    07:00 -2°C° 0 mm 1 mps 779 mmHg 80%
    08:00 -1°C° 0 mm 1 mps 779 mmHg 77%
    09:00 -1°C° 0 mm 1 mps 779 mmHg 75%
    10:00 0°C° 0 mm 1 mps 779 mmHg 69%
    11:00 -1°C° 0 mm 2 mps 779 mmHg 63%
    12:00 +1°C° 0 mm 2 mps 779 mmHg 58%
    13:00 +1°C° 0 mm 2 mps 779 mmHg 59%
    14:00 +2°C° 0 mm 1 mps 778 mmHg 61%
    15:00 +2°C° 0 mm 1 mps 778 mmHg 63%
    16:00 -1°C° 0 mm 2 mps 778 mmHg 66%
    17:00 -2°C° 0 mm 2 mps 778 mmHg 70%
    18:00 -3°C° 0 mm 2 mps 778 mmHg 73%
    19:00 -3°C° 0 mm 2 mps 778 mmHg 72%
    20:00 -3°C° 0 mm 2 mps 778 mmHg 72%
    21:00 -3°C° 0 mm 2 mps 778 mmHg 71%
    22:00 -3°C° 0 mm 2 mps 778 mmHg 70%
    23:00 -3°C° 0 mm 2 mps 778 mmHg 69%

    19 January, Thursday

    Time Temperature Precipitation Wind Pressure Humidity
    00:00 -3°C° 0 mm 2 mps 778 mmHg 67%
    01:00 -1°C° 0 mm 1 mps 778 mmHg 67%
    02:00 -1°C° 0 mm 1 mps 778 mmHg 67%
    03:00 -1°C° 0 mm 1 mps 778 mmHg 67%
    04:00 -1°C° 0 mm 1 mps 778 mmHg 67%
    05:00 -1°C° 0 mm 1 mps 777 mmHg 67%
    06:00 -1°C° 0 mm 1 mps 777 mmHg 67%
    07:00 -2°C° 0 mm 2 mps 777 mmHg 65%
    08:00 -2°C° 0 mm 2 mps 777 mmHg 63%
    09:00 -2°C° 0 mm 2 mps 777 mmHg 61%
    10:00 -1°C° 0 mm 2 mps 777 mmHg 57%
    11:00 +2°C° 0 mm 2 mps 777 mmHg 54%
    12:00 +3°C° 0 mm 2 mps 776 mmHg 51%
    13:00 +2°C° 0 mm 2 mps 776 mmHg 55%
    14:00 +2°C° 0 mm 2 mps 776 mmHg 59%
    15:00 +2°C° 0 mm 2 mps 775 mmHg 63%
    16:00 +1°C° 0 mm 2 mps 775 mmHg 65%
    17:00 -1°C° 0 mm 2 mps 775 mmHg 68%
    18:00 -1°C° 0 mm 2 mps 775 mmHg 70%
    19:00 -1°C° 0 mm 2 mps 775 mmHg 70%
    20:00 -1°C° 0 mm 2 mps 775 mmHg 70%
    21:00 -1°C° 0 mm 2 mps 775 mmHg 70%
    22:00 -1°C° 0 mm 2 mps 774 mmHg 71%
    23:00 -1°C° 0 mm 2 mps 774 mmHg 71%

    20 January, Friday

    Time Temperature Precipitation Wind Pressure Humidity
    00:00 -1°C° 0 mm 2 mps 774 mmHg 71%
    01:00 -1°C° 0 mm 2 mps 773 mmHg 71%
    02:00 -1°C° 0 mm 2 mps 773 mmHg 72%
    03:00 -2°C° 0 mm 2 mps 773 mmHg 72%
    04:00 -2°C° 0 mm 2 mps 773 mmHg 72%
    05:00 -2°C° 0 mm 2 mps 773 mmHg 72%
    06:00 -2°C° 0 mm 2 mps 772 mmHg 72%
    07:00 -2°C° 0 mm 2 mps 772 mmHg 68%
    08:00 -2°C° 0 mm 2 mps 772 mmHg 65%
    09:00 -2°C° 0 mm 2 mps 772 mmHg 62%
    10:00 -1°C° 0 mm 2 mps 772 mmHg 56%
    11:00 +1°C° 0 mm 2 mps 772 mmHg 50%
    12:00 +2°C° 0 mm 2 mps 772 mmHg 44%
    13:00 +1°C° 0 mm 2 mps 771 mmHg 47%
    14:00 +1°C° 0 mm 2 mps 771 mmHg 50%
    15:00 +1°C° 0 mm 2 mps 771 mmHg 53%
    16:00 -1°C° 0 mm 2 mps 771 mmHg 57%
    17:00 -3°C° 0 mm 2 mps 771 mmHg 61%
    18:00 -4°C° 0 mm 2 mps 771 mmHg 65%
    19:00 -4°C° 0 mm 2 mps 771 mmHg 66%
    20:00 -4°C° 0 mm 2 mps 771 mmHg 68%
    21:00 -4°C° 0 mm 2 mps 771 mmHg 70%
    22:00 -5°C° 0 mm 2 mps 771 mmHg 70%
    23:00 -5°C° 0 mm 2 mps 771 mmHg 71%

    21 January, Saturday

    Time Temperature Precipitation Wind Pressure Humidity
    00:00 -5°C° 0 mm 2 mps 770 mmHg 71%
    01:00 -5°C° 0 mm 2 mps 770 mmHg 71%
    02:00 -5°C° 0 mm 2 mps 770 mmHg 71%
    03:00 -5°C° 0 mm 2 mps 770 mmHg 71%
    04:00 -5°C° 0 mm 2 mps 770 mmHg 71%
    05:00 -5°C° 0 mm 2 mps 769 mmHg 71%
    06:00 -5°C° 0 mm 2 mps 769 mmHg 71%
    07:00 -5°C° 0 mm 2 mps 769 mmHg 69%
    08:00 -5°C° 0 mm 2 mps 769 mmHg 67%
    09:00 -4°C° 0 mm 2 mps 769 mmHg 65%
    10:00 -3°C° 0 mm 2 mps 769 mmHg 59%
    11:00 -2°C° 0 mm 2 mps 768 mmHg 53%
    12:00 +1°C° 0 mm 2 mps 768 mmHg 48%
    13:00 +1°C° 0 mm 2 mps 768 mmHg 50%
    14:00 +1°C° 0 mm 2 mps 767 mmHg 51%
    15:00 +1°C° 0 mm 1 mps 767 mmHg 53%
    16:00 -2°C° 0 mm 2 mps 767 mmHg 57%
    17:00 -2°C° 0 mm 2 mps 767 mmHg 60%
    18:00 -3°C° 0 mm 2 mps 766 mmHg 64%
    19:00 -4°C° 0 mm 2 mps 766 mmHg 64%
    20:00 -4°C° 0 mm 2 mps 766 mmHg 65%
    21:00 -4°C° 0 mm 2 mps 766 mmHg 65%
    22:00 -4°C° 0 mm 2 mps 766 mmHg 65%
    23:00 -5°C° 0 mm 3 mps 765 mmHg 65%
    Show more